Location: Theydon Bois
(51.6750°N, 0.1050°E)
Time: 08:36:15
(UTC+00:00)

Daily predictions for brighter satellites

Satellite Brightness Start Highest point End
(mag) Time Altitude Azimuth Time Altitude Azimuth Time Altitude Azimuth
Cosmos 2344 4.2 17:44:11 10° WSW 17:51:44 62° NNW 18:00:50 10° NE
Cosmos 1939 Rocket 4.3 17:52:50 10° ESE 17:55:21 17° ENE 17:57:53 10° NNE
Meteor 2-3 Rocket 4.2 17:49:58 10° SSW 17:55:38 70° WNW 18:01:24 10° N
Cosmos 1814 Rocket 4.1 17:51:31 10° S 17:56:34 56° ESE 18:01:35 10° NNE
SL-08 ROCKET BODY 4.5 17:50:32 10° N 17:56:45 72° ENE 18:02:55 10° SSE
Envisat 3.2 17:52:22 10° SE 17:57:14 49° ENE 18:02:09 10° N
FREGAT/IRIS 4.3 17:56:30 10° E 17:58:07 14° ENE 17:59:45 10° NNE
SPOT 3 Rocket 4.5 17:55:42 10° ESE 18:00:03 28° ENE 18:04:28 10° N
Cosmos 1943 4.4 17:58:23 10° NW 18:03:48 47° WSW 18:09:10 10° S
Cosmos 2315 Rocket 4.2 17:58:07 10° SSE 18:04:06 52° E 18:10:12 10° NNE
Cosmos 2297 Rocket 4.2 18:00:03 10° W 18:04:33 24° NW 18:09:04 10° NNE
USA 267 3.3 17:58:30 10° ENE 18:05:06 89° SSE 18:11:40 10° WSW
Meteor 2-6 Rocket 4.3 18:00:41 10° NNW 18:06:08 82° W 18:11:31 10° S
SKYMED 2 3.6 18:02:45 10° NNE 18:07:05 61° ESE 18:11:23 10° S
Cosmos 1242 Rocket 2.8 18:04:24 10° S 18:07:41 43° E 18:11:00 10° NNE
CZ-4 R/B 1.7 18:04:17 10° S 18:08:11 69° WSW 18:12:12 10° NNW
Cosmos 1812 3.4 18:04:53 10° N 18:08:24 32° ENE 18:11:52 10° SE
H-2A R/B 3.3 18:06:36 10° S 18:10:16 62° W 18:14:00 10° NNW
Cosmos 1703 Rocket 3.8 18:06:10 10° N 18:10:21 45° ENE 18:14:31 10° SSE
YAOGAN 6 3.3 18:08:24 10° SE 18:11:42 34° ENE 18:15:03 10° N
Okean 1-7 3.5 18:07:40 10° N 18:11:43 37° ENE 18:15:43 10° SE
Cosmos 44 3.7 18:06:37 10° NW 18:11:45 48° NE 18:16:34 10° ESE
Cosmos 1825 4.2 18:09:37 10° SW 18:13:02 31° WNW 18:16:30 10° N
NOSS 7 (D) 4.4 18:11:16 10° SSW 18:14:32 53° SE 18:17:33 10° NE
YAOGAN 1 2.7 18:11:14 10° SSE 18:15:34 80° WSW 18:19:55 10° NNW
MOS 1 4.4 18:10:11 10° SE 18:15:37 52° ENE 18:21:06 10° N
Cosmos 1633 Rocket 3.7 18:11:41 10° SSW 18:16:03 61° WNW 18:20:26 10° N
Meteor 1-27 Rocket 3.7 18:10:41 10° N 18:16:22 75° ENE 18:22:08 10° SSE
CZ-4C R/B 3.9 18:15:43 10° ESE 18:16:58 11° ESE 18:17:20 11° E
Cosmos 1844 Rocket 3.7 18:14:01 10° SSE 18:18:33 25° ESE 18:23:05 10° NE
Cosmos 372 Rocket 4.1 18:14:49 10° NNW 18:20:06 87° WSW 18:25:23 10° SSE
Cosmos 1125 Rocket 3.5 18:15:58 10° NNW 18:21:16 73° ENE 18:26:34 10° SSE
Cosmos 2221 Rocket 4.3 18:20:31 10° N 18:24:37 33° ENE 18:28:44 10° SE
Cosmos 1356 Rocket 3.2 18:22:10 10° N 18:26:13 80° ENE 18:30:14 10° SSE
H-2A R/B 3.7 18:24:17 13° ENE 18:26:22 16° NE 18:29:35 10° NNE
NOSS 7 (H) 4.5 18:29:23 10° SSW 18:32:45 56° SE 18:35:13 16° NE
NOSS 7 (E) 4.1 18:30:10 10° SW 18:33:31 77° SE 18:36:00 15° NE
Cosmos 841 Rocket 3.5 18:28:31 10° SSW 18:33:40 86° WNW 18:38:52 10° NNE
Ariane Rocket 3.4 18:31:02 10° S 18:36:06 70° WSW 18:41:15 10° NNW
IRS-1A Rocket 4.4 18:34:53 10° SSE 18:40:28 84° WSW 18:46:11 10° NNW
CZ-2D R/B 3.1 18:40:33 10° SSE 18:44:19 67° ENE 18:48:07 10° N
Meteor 2-21 Rocket 4.4 18:38:56 10° N 18:45:04 88° E 18:51:07 10° S
SJ 16-02 3.5 18:41:47 10° NW 18:45:37 29° WSW 18:49:27 10° SSW
CZ-2C R/B 3.8 18:42:14 10° NNE 18:46:35 50° E 18:50:57 10° S
Meteor 2-16 Rocket 4.4 18:41:24 10° N 18:47:34 79° ENE 18:53:42 10° SSE
SJ-6B 3.4 18:44:18 11° SE 18:47:58 39° ENE 18:51:47 10° N
ERBS 2.4 18:47:47 10° WSW 18:51:11 71° NNW 18:52:58 26° NE
COSMO-SKYMED 1 3.6 18:50:51 10° N 18:55:02 48° WNW 18:59:13 10° SW
Cosmos 1862 4.1 18:51:46 10° SSW 18:55:44 55° WNW 18:59:45 10° N
NOSS 2-1 (C) 3.6 18:53:21 10° SSW 18:56:41 39° SE 18:57:48 31° E
HJ-1C 3.2 18:53:45 10° SSE 18:57:06 80° ENE 19:00:30 10° N
Cosmos 2263 Rocket 3.0 18:52:19 10° SW 18:57:51 53° NW 19:03:24 10° NNE
NOSS 2-1 (D) 3.5 18:55:30 10° SSW 18:58:52 42° SE 18:59:59 32° E
Cosmos 1833 Rocket 3.5 18:56:17 10° NNW 19:01:21 33° NE 19:03:20 26° E
COSMOS 2406 3.2 18:56:11 10° NNW 19:01:59 70° ENE 19:06:49 15° SE
ATLAS 2AS CENTAUR R/B 3.2 18:56:55 10° NW 19:04:49 57° NNE 19:09:22 25° ESE
Cosmos 1869 Rocket 3.5 19:01:00 10° S 19:05:26 70° E 19:09:56 10° NNE
Cosmos 44 Rocket 3.6 19:00:27 10° NW 19:05:31 52° NE 19:07:41 31° E
Lacrosse 5 rocket 3.0 19:02:42 10° S 19:04:29 18° SSE 19:04:29 18° SSE
Cosmos 836 Rocket 4.4 19:03:32 10° SSW 19:08:48 75° ESE 19:14:05 10° NNE
SeaSat 1 4.5 19:08:56 12° NE 19:09:57 13° NNE 19:12:07 10° N
Okean 3 3.9 19:06:26 10° N 19:10:29 39° ENE 19:11:02 37° E
Cosmos 2082 Rocket 3.0 19:07:32 10° NNW 19:12:41 32° NE 19:14:09 29° ENE
Cosmos 2327 Rocket 4.4 19:06:45 10° N 19:12:55 81° E 19:19:07 10° SSE
Cosmos 192 4.4 19:09:27 10° SSW 19:14:24 80° WNW 19:19:23 10° NNE
Cosmos 1633 3.2 19:11:44 10° SSW 19:15:19 58° WNW 19:18:55 10° N
Timation 1 Rocket 4.3 19:11:20 10° SSW 19:17:18 89° WNW 19:23:20 10° NNE
Meteor 1-25 Rocket 4.2 19:13:29 10° S 19:18:55 54° E 19:24:20 10° NNE
DEBRIS 3.6 19:16:41 10° SW 19:18:19 23° SSW 19:18:19 23° SSW
Resurs 01 Rocket 2.2 19:20:01 37° ENE 19:20:01 37° ENE 19:24:04 10° N
Cosmos 1610 Rocket 4.4 19:14:04 10° N 19:20:28 80° E 19:26:45 10° SSE
Cosmos 2074 Rocket 4.2 19:14:46 10° NNW 19:21:00 73° W 19:27:12 10° S
Cosmos 2184 Rocket 4.3 19:19:09 10° NNW 19:25:32 71° W 19:31:50 10° S
Meteor 2-4 Rocket 4.3 19:20:50 10° N 19:26:23 39° ENE 19:27:17 37° E
Lacrosse 5 2.5 19:22:24 10° W 19:27:18 48° N 19:29:20 31° NE
Cosmos 1844 3.7 19:22:25 10° SSW 19:28:02 62° ESE 19:32:42 16° NE
FREGAT/IRIS 4.1 19:26:14 10° SSW 19:28:54 35° W 19:31:36 10° NNW
Cosmos 540 Rocket 4.4 19:24:18 10° SW 19:29:12 46° WNW 19:34:11 10° NNE
Cosmos 1939 Rocket 3.3 19:26:07 10° S 19:29:55 58° W 19:33:45 10° NNW
Meteor 1-18 Rocket 4.2 19:24:43 10° NNW 19:30:36 84° ENE 19:36:19 10° SSE
ARGOS 3.5 19:31:26 42° E 19:32:16 45° ENE 19:37:26 10° N
NOSS 2-1 (E) 3.0 19:33:06 10° SW 19:36:42 80° SE 19:36:44 80° ESE
SJ-11-01 4.2 19:34:26 23° SSE 19:37:22 89° E 19:42:08 10° NNW
SPOT 3 Rocket 4.2 19:34:05 10° S 19:39:10 56° W 19:44:20 10° NNW
NOAA 11 4.4 19:33:46 10° S 19:39:11 70° WSW 19:44:37 10° NNW
Spot 2 Rocket 3.9 19:42:11 42° NE 19:42:11 42° NE 19:46:35 10° N
USA 186 3.7 19:46:00 21° NNW 19:46:00 21° NNW 19:47:13 10° NNW
Cosmos 2341 Rocket 3.9 19:39:09 10° N 19:45:27 70° ENE 19:48:37 31° SSE
USA 267 3.6 19:44:45 31° ENE 19:47:57 59° N 19:54:21 10° W
Meteor 1-13 Rocket 4.4 19:44:57 10° N 19:50:33 51° ENE 19:50:33 51° ENE
Meteor 1-19 Rocket 4.0 19:50:48 10° NNW 19:56:30 83° ENE 19:58:01 51° SSE
NOSS 3-4 (A) 3.9 19:51:55 10° NW 19:58:38 59° NE 20:00:11 49° E
NOSS 3-4 (C) 3.9 19:52:02 10° NW 19:58:44 59° NE 20:00:16 49° E
Cosmos 1295 Rocket 4.4 19:52:52 10° N 19:59:03 88° WSW 20:02:45 26° S
Cosmos 1674 Rocket 3.8 19:55:51 10° N 19:59:30 62° N 19:59:30 62° N
Cosmos 1844 Rocket 3.0 19:56:21 10° SW 20:02:00 67° WNW 20:06:48 15° NNE
Resurs 1-3 3.7 20:03:12 76° NW 20:03:12 76° NW 20:07:21 10° NNW
Cosmos 1867 3.6 19:57:55 10° NW 20:03:23 62° NE 20:03:24 62° NE
CZ-4C R/B 2.5 19:58:47 10° SSW 20:02:37 47° S 20:02:37 47° S
H-2A R/B 2.0 20:04:54 73° ENE 20:04:54 73° ENE 20:10:20 10° NNW
Cosmos 2278 Rocket 4.3 19:59:57 10° S 20:00:20 12° S 20:00:20 12° S
Okean 1 4.1 20:03:30 10° NNW 20:07:25 51° W 20:07:25 51° W
Lacrosse 4 Rocket 3.6 20:11:50 10° NNW 20:13:31 18° N 20:13:31 18° N
NOSS 2-2 (D) 4.4 20:11:44 10° NW 20:17:24 81° NE 20:18:07 71° ESE
Cosmos 2366 rocket 3.9 20:14:50 10° N 20:20:33 66° NE 20:20:33 66° NE
Cosmos 2218 Rocket 3.8 20:21:03 10° N 20:26:53 77° NNE 20:26:53 77° NNE
Cosmos 1833 Rocket 3.2 20:40:06 10° NW 20:45:04 57° W 20:45:04 57° W
SeaSat 1 4.3 20:48:43 24° N 20:48:43 24° N 20:50:54 10° NNW
CZ-2C R/B 4.3 20:51:06 39° N 20:51:06 39° N 20:54:36 10° N
ATLAS 2AS CENTAUR R/B 3.3 20:48:20 10° NW 20:55:57 55° WSW 20:56:50 52° SSW
Resurs 01 Rocket 3.6 20:57:35 27° WNW 20:57:35 27° WNW 21:00:29 10° NNW
Cosmos 2082 Rocket 2.9 20:51:31 10° NW 20:56:02 51° WNW 20:56:02 51° WNW
SL-8 Rocket 4.5 20:51:44 10° NNW 20:57:47 55° W 20:58:09 55° WSW
Lacrosse 5 3.7 21:05:58 10° WNW 21:08:32 29° NW 21:08:32 29° NW
USA 267 3.9 21:32:05 50° NW 21:32:05 50° NW 21:37:01 10° WNW
H-2A R/B 4.3 21:45:31 20° W 21:45:31 20° W 21:48:55 10° NW
